This is the latest recevied weather packets stored in our database for station/object AJ1L. If no packets are shown the sender has not sent any weather packets the latest 10 day(s).
| Time | Temp. | Humidity | Pressure | Rain* | Wind** | Luminosity | Snow |
|---|---|---|---|---|---|---|---|
| 1788456216 | 25° C | 83% | 1012.9 hPa | 0 mm | - | - | - |
| 1788454216 | 23.89° C | 85% | 1012.7 hPa | 0 mm | - | - | - |
| 1788453217 | 23.33° C | 87% | 1012.6 hPa | 0 mm | - | - | - |
| 1788452216 | 22.78° C | 89% | 1012.8 hPa | 0 mm | - | - | - |
| 1788451216 | 22.78° C | 92% | 1013 hPa | 0 mm | - | - | - |
| 1788450233 | 22.22° C | 93% | 1013.2 hPa | 0 mm | - | - | - |
| 1788449216 | 22.22° C | 95% | 1013.4 hPa | 0 mm | - | - | - |
| 1788448215 | 21.67° C | 95% | 1013.6 hPa | 0 mm | - | - | - |
| 1788447215 | 21.67° C | 95% | 1013.7 hPa | 0 mm | - | - | - |
| 1788446216 | 21.67° C | 96% | 1013.9 hPa | 0 mm | - | - | - |
| 1788445216 | 21.11° C | 96% | 1014.3 hPa | 0 mm | - | - | - |
| 1788444216 | 20.56° C | 96% | 1014.5 hPa | 0 mm | - | - | - |
| 1788443216 | 20.56° C | 96% | 1014.3 hPa | 0 mm | - | - | - |
| 1788442216 | 20° C | 95% | 1014.2 hPa | 0 mm | - | - | - |
| 1788441216 | 19.44° C | 95% | 1014.5 hPa | 0 mm | - | - | - |
| 1788440216 | 19.44° C | 95% | 1014.3 hPa | 0 mm | - | - | - |
| 1788439216 | 19.44° C | 95% | 1014.4 hPa | 0.25 mm | - | - | - |
| 1788437216 | 18.89° C | 95% | 1014.9 hPa | 2.03 mm | - | - | - |
| 1788436215 | 18.89° C | 95% | 1015 hPa | 1.78 mm | - | - | - |
| 1788435215 | 18.33° C | 95% | 1014.9 hPa | 1.78 mm | - | - | - |
| 1788434216 | 18.33° C | 95% | 1015 hPa | 0.25 mm | - | - | - |
| 1788433215 | 17.78° C | 95% | 1015.1 hPa | 0.25 mm | - | - | - |
| 1788432215 | 17.78° C | 94% | 1014.9 hPa | 0.76 mm | - | - | - |
| 1788431215 | 17.78° C | 94% | 1014.8 hPa | 0.51 mm | - | - | - |
| 1788430215 | 17.78° C | 94% | 1014.8 hPa | 0.76 mm | - | - | - |
* Rain latest hour (hover to see other rain measurements)
** Current wind speed in m/s (hover to see current wind gust speed)